Погода в Сергееве

Россия / Ивановская область     56°45′39″N   41°24′39″E
темп.,
°C
ветер,
м/с
пор.,
м/с
влажн.,
%
обл.,
%
осадки,
мм/ч
давл.,
гПа
погр.,
м
17 октября, вс
вс1700:00+7зюз39847 0.8 1011694
03:00+4юз310940 0.8 1012325
06:00+4ююз413905 0.0 1012476
09:00+6юз5138289 0.0 1011686
12:00+8юз51073100 0.0 1011895
15:00+8юз5107381 0.0 10101200
18:00+7зюз41076100 0.1 1011725
21:00+6юз4118376 0.1 1010454
18 октября, пн
пн1800:00+4юз3108763 0.0 1010372
03:00+3юз399468 0.0 1010247
06:00+5ююз3989100 0.0 1008454
09:00+6юз4884100 0.0 1007880
12:00+7юз51080100 0.3 10061234
15:00+3зсз2796100 2.7 1007372
18:00+3юз39870 0.0 1008296
21:00+2зюз310875 0.0 1008318
19 октября, вт
вт1900:00+1зюз3109293 0.0 1009369
03:00+3з388289 0.0 1010558
06:00+1зсз38916 0.0 1011330
09:00+1зсз388686 0.1 1012427
12:00+3зсз3579100 0.0 1013728
15:00+3зсз3679100 0.2 1013758
18:00+2зсз2684100 0.1 1014300
21:00+2зсз2688100 0.3 1015269
20 октября, ср
ср2000:00+1зсз2798100 0.1 1015392
03:00+1сз3793100 0.4 1016578
06:00+1сз3783100 0.0 1018438
09:00+1с358778 0.1 1019512
12:00+3сз346591 0.0 1020941
15:00+3зсз346081 0.0 10201077
18:000зюз248320 0.0 102072
21:000ю2581100 0.0 1019117
21 октября, чт
чт2100:000ю41179100 0.0 1017512
03:000ю51472100 0.0 1013562
06:00+1ю61682100 0.4 1009678
09:00+2ююз71689100 1.9 1005751
12:00+4ююз61694100 1.3 1002710
15:00+7юз61693100 2.4 1000732
18:00+9юз61590100 0.0 998708
21:00+10юз61690100 0.6 997686